Regional Weather Roundup
Issued by NWS

Home | Current Version | Previous Version | Text Only | Print | Product List | Glossary Off
Versions: 1 2 3 4 5 6 7 8 9 10 11 12 13 14 15 16 17 18 19 20 21 22 23 24 25 26 27 28 29 30 31 32 33 34 35 36 37 38 39 40 41 42 43 44 45 46 47 48 49 50

000
ASUS43 KLOT 242109
RWRIL

ILLINOIS REGIONAL WEATHER ROUNDUP
NATIONAL WEATHER SERVICE CHICAGO/ROMEOVILLE IL
400 PM CDT SAT JUN 24 2017

NOTE: "FAIR" INDICATES FEW OR NO CLOUDS BELOW 12,000 FEET WITH NO
SIGNIFICANT WEATHER AND/OR OBSTRUCTIONS TO VISIBILITY.

* THESE STATIONS ARE NOT UNDER NWS QUALITY CONTROL. THEY ALSO MAY NOT
  REPORT WEATHER SUCH AS PRECIPITATION OR FOG.

ILZ001-002-007-009-015-016-024-242200-
NORTHWEST ILLINOIS

CITY           SKY/WX    TMP DP  RH WIND       PRES   REMARKS
MOLINE         SUNNY     75  41  29 NW16G28   30.08S
STERLING*      SUNNY     72  44  36 NW22G29   30.06R
SAVANNA*       SUNNY     72  44  36 NW18G24   30.06S
$$

ILZ003-004-008-010-011-017-018-242200-
NORTH CENTRAL ILLINOIS

CITY           SKY/WX    TMP DP  RH WIND       PRES   REMARKS
ROCKFORD       MOSUNNY   73  44  35 NW22G32   30.04R
FREEPORT*      MOSUNNY   69  42  38 W21G29    30.05S
ROCHELLE*      PTSUNNY   70  45  40 W31G37    30.04S
DE KALB*       PTSUNNY   71  45  39 W24G31    30.03S
PERU*          SUNNY     71  44  37 NW20G28   30.06S
$$

ILZ005-006-012>014-019>023-242200-
NORTHEAST ILLINOIS

CITY           SKY/WX    TMP DP  RH WIND       PRES   REMARKS
CHICAGO-OHARE  MOSUNNY   73  44  35 W20G29    29.99S
CHICAGO-MIDWAY MOSUNNY   75  44  33 W21G29    29.99S
AURORA         MOSUNNY   73  48  41 W22G30    30.02S
LANSING*       MOSUNNY   74  45  34 W20       30.00S
JOLIET*        MOSUNNY   75  46  35 W12G21    30.02S
WAUKEGAN       MOSUNNY   70  46  42 W12G18    29.97S
DUPAGE AIRPORT MOSUNNY   71  46  40 W20G30    30.00F
WHEELING       MOSUNNY   72  45  37 W18G26    30.00S
MORRIS*        SUNNY     73  44  34 W23G33    30.02S
ROMEOVILLE*    MOSUNNY   74  42  30 NW20G26   30.01S
NORTHERLY ISL    N/A     73  41  31 W9          N/A
$$

LMZ740>746-242200-
SOUTHERN LAKE MICHIGAN

STATION/POSITION SKY/WX   TEMP    WIND        PRES    VSBY  WAVE
                          AIR SEA DIR/SP/G                  HT/PER
                          (F)     (DEG/KT/KT) (MB)    (MI)  (FT/S)
SOUTHERN BUOY              64 63  300/  6/  8 1014.8S         1/ 3
WILMETTE HARBOR            69 65  270/ 12/ 17   N/A           2/ 3
HARRISON CRIB              71     290/ 17/ 20   N/A
BURNHAM HARBOR             72                   N/A
CALUMET HARBOR             74     260/  6/ 20 1015.2R
BURNS HARBOR               69     300/ 10/ 13 1016.3R
MICHIGAN CITY              69     330/  8/ 10   N/A
MICHIGAN CITY 6N           68 69  330/  6/  6   N/A           2/ 4
ST. JOSEPH                 67 69  310/  8/ 10 1015.6R         2/ 5
$$

ILZ025>027-034>036-040-047-049-050-058-095>099-242200-
WEST-CENTRAL ILLINOIS

CITY           SKY/WX    TMP DP  RH WIND       PRES   REMARKS
QUINCY         SUNNY     75  42  30 NW17G30   30.12F
GALESBURG*     SUNNY     73  43  34 W17G28    30.10F
MACOMB*        SUNNY     74  42  32 W17G25    30.13S
JACKSONVILLE*  SUNNY     75  42  30 NW20G26   30.10S
PITTSFIELD*    SUNNY     76  43  31 W15G21    30.13S
$$

ILZ028>032-037-038-041>044-048-051>054-059>061-242200-
CENTRAL ILLINOIS

CITY           SKY/WX    TMP DP  RH WIND       PRES   REMARKS
PONTIAC        SUNNY     74  44  33 W20G29    30.06S
BLOOMINGTON    SUNNY     74  46  36 NW20G26   30.08S
DECATUR        SUNNY     76  46  34 NW12G23   30.07F
PEORIA         SUNNY     74  42  31 W15G26    30.08F
LACON*         SUNNY     73  47  38 NW16G23   30.06S
LINCOLN*       SUNNY     76  45  32 NW9G17    30.07S
SPRINGFIELD    SUNNY     78  46  32 W14G25    30.09S
TAYLORVILLE    SUNNY     75  47  35 W16G22    30.09F
$$

ILZ033-039-045-046-055>057-062-063-242200-
EAST-CENTRAL ILLINOIS

CITY           SKY/WX    TMP DP  RH WIND       PRES   REMARKS
CHAMPAIGN      MOSUNNY   76  47  35 W13G23    30.06F
RANTOUL*       MOSUNNY   76  50  39 NW18G24   30.06S
MATTOON        MOSUNNY   76  51  41 W12G22    30.07F
PARIS*         MOSUNNY   74  52  45 W15G24    30.07S
$$

ILZ079-100>102-242200-
SOUTHWEST ILLINOIS

CITY           SKY/WX    TMP DP  RH WIND       PRES   REMARKS
ALTON          MOSUNNY   75  52  43 W15G22    30.12S
BELLEVILLE     SUNNY     79  49  34 NW12      30.12S
CAHOKIA*       SUNNY     81  45  28 NW20      30.11S HX  80
SPARTA*        SUNNY     79  47  32 NW8G16    30.12S
$$

ILZ064>066-069>071-074>076-080>082-084>086-088>090-092>094-242200-
SOUTH-CENTRAL ILLINOIS

CITY           SKY/WX    TMP DP  RH WIND       PRES   REMARKS
CARBONDALE     MOSUNNY   78  51  38 NW10      30.11F
CAIRO*         MOSUNNY   78  55  44 NW10      30.10F
EFFINGHAM*     MOSUNNY   77  51  41 W15G24    30.10F
MARION         PTSUNNY   77  48  36 NW9       30.12F
MT. VERNON     MOSUNNY   77  52  41 VRB6G16   30.10F
CENTRALIA*     MOSUNNY   79  53  40 NW9G20    30.10S
SALEM*         MOSUNNY   78  48  35 NW12G18   30.10F
METROPOLIS*    MOSUNNY   79  57  45 NW12      30.10S HX  80
$$

ILZ067-068-072-073-078-083-087-091-242200-
SOUTHEAST ILLINOIS

CITY           SKY/WX    TMP DP  RH WIND       PRES   REMARKS
LAWRENCEVILLE  CLOUDY    78  53  41 W18       30.07F
FLORA*         PTSUNNY   78  51  38 W16       30.09F
FAIRFIELD*     CLOUDY    76  51  41 NW7       30.09S
HARRISBURG*    PTSUNNY   76  51  41 NW12      30.10F
ROBINSON*      CLOUDY    76  51  41 NW15      30.08F
CARMI*         CLOUDY    77  54  45 W13G18    30.08F
$$

ABBREVIATIONS USED IN REMARKS
   TC - TEMPERATURE IN CELSIUS
  WCI - WIND CHILL INDEX
   HX - HEAT INDEX
  VSB - VISIBILITY
$$





USA.gov is the U.S. government's official web portal to all federal, state and local government web resources and services.